Temp
11 11 11 11 11 10 10 10 10 10 10 9 9 9 8 8 8 8 8 8 8 7 7 7 7 6 6 7 5 6 7 7 7 7 8 8 9 11 10 11 12 11 12 12 12 14 14
11 11 10 10 10 10 10 10 10 10 10 10 9 9 9 9 9 9 8 8 8 8 7 7 7 7 7 5 5 6 7 7 7 8 8 8 9 11 11 11 12 12 12 11 13 13 13
11 11 10 11 11 10 10 10 11 11 11 10 10 9 10 9 9 9 9 9 8 8 8 7 7 7 6 4 6 6 7 6 7 8 8 9 9 11 12 10 12 12 12 11 10 12 12
11 11 11 11 11 11 10 10 11 11 11 11 11 10 10 10 10 10 9 9 9 8 8 7 7 8 5 5 6 6 7 7 7 7 8 9 10 11 12 11 11 10 9 10 11 11 13
11 11 11 11 11 11 10 10 11 11 11 11 11 11 11 10 10 10 10 10 9 9 9 8 8 8 5 6 7 7 7 7 8 8 9 10 10 11 11 8 8 7 7 10 13 11 13
11 12 12 11 11 11 11 11 11 12 12 11 11 11 11 11 11 11 11 11 10 10 9 9 8 7 6 7 7 7 7 8 8 9 9 10 10 7 6 7 8 10 8 10 11 11 12
11 12 12 12 12 11 11 12 12 12 12 11 11 11 11 11 11 11 12 11 11 11 10 9 9 8 9 9 7 7 7 8 8 9 8 9 6 5 9 8 9 8 10 10 10 10 12
11 11 12 12 12 12 12 12 13 12 12 11 11 11 11 11 11 11 11 11 10 9 9 10 10 10 10 9 7 8 7 8 8 7 9 7 7 8 8 9 9 9 9 9 10 10 12
11 11 12 12 12 12 12 12 12 12 12 11 10 10 11 11 11 11 11 11 11 10 9 11 10 11 10 10 9 8 8 10 10 9 8 7 8 8 8 7 9 8 9 9 10 10 8
11 12 12 12 12 12 12 12 12 12 12 11 11 11 11 11 11 11 11 10 10 10 3 7 9 11 11 11 10 10 10 10 9 9 7 6 7 8 8 8 8 10 8 9 9 9 8
11 12 12 11 12 12 12 12 12 12 12 12 11 11 11 11 11 10 10 10 10 10 4 8 9 11 11 11 10 11 10 11 8 7 9 8 7 7 7 8 8 9 9 8 8 7 6
11 11 12 12 12 12 12 12 12 13 13 12 11 11 11 10 10 10 10 10 10 4 4 6 9 8 9 10 10 12 11 11 10 8 7 7 8 7 8 8 8 7 9 7 5 6 5
11 11 11 12 12 12 12 12 12 13 13 12 12 11 11 10 10 10 10 10 4 3 6 8 7 8 8 8 8 8 7 6 6 6 5 7 7 7 8 9 9 8 7 3 7 5 7
11 11 11 11 12 12 12 12 12 12 13 12 12 11 10 10 10 10 10 5 5 5 6 8 8 8 8 8 8 7 7 5 6 6 3 4 5 7 7 8 9 7 7 4 8 6 5
11 11 11 11 11 12 12 12 12 12 13 12 12 11 11 10 10 9 9 2 3 5 7 7 8 8 8 8 9 7 6 6 7 6 8 6 7 7 7 7 8 8 6 7 3 2 3
10 11 11 11 11 11 12 12 12 13 13 13 12 12 11 10 10 9 4 4 6 6 7 8 9 8 8 7 8 7 6 6 6 7 7 7 7 6 7 8 7 8 6 6 4 9 9
10 10 10 11 11 11 12 12 12 13 13 13 13 12 11 11 10 10 2 3 6 8 8 8 8 8 8 8 8 7 7 7 6 7 7 7 7 7 7 7 7 7 7 5 5 5 6
10 10 10 10 11 11 11 12 12 13 13 13 13 8 12 11 9 3 4 7 8 8 8 8 8 8 8 8 8 7 7 6 7 7 7 6 5 3 8 7 7 7 8 5 5 7 3
10 10 10 10 10 11 11 11 12 12 13 12 12 12 12 12 4 3 6 7 7 7 7 8 8 8 8 7 8 7 7 7 7 6 6 7 6 4 7 7 7 7 6 6 4 4 5
9 9 9 9 9 10 10 11 11 12 12 12 12 5 11 11 7 5 7 7 7 8 7 8 7 8 8 8 7 7 7 6 7 7 7 7 4 6 6 8 7 7 6 5 6 3 5
8 9 9 9 9 8 9 10 11 12 12 12 11 6 7 3 6 6 6 7 8 8 7 8 7 8 7 8 7 8 7 6 6 6 6 5 5 3 5 5 5 6 7 5 5 6 6
6 7 7 8 8 8 9 9 10 11 12 12 10 9 7 6 7 7 6 7 8 8 8 8 7 7 7 7 7 7 7 6 7 6 5 3 6 4 6 5 4 4 4 3 4 5 4
6 6 6 7 7 7 6 7 8 10 10 10 9 9 8 4 5 6 6 8 8 8 7 8 7 7 7 6 6 7 7 6 5 6 4 4 3 3 6 3 4 6 4 4 4 4 5
6 6 6 7 6 6 6 6 6 8 9 9 9 9 8 6 4 5 7 7 7 7 7 7 7 7 7 7 6 6 6 6 5 4 4 4 4 3 3 4 5 7 6 6 5 6 4
6 6 6 6 6 5 5 5 5 5 7 8 8 8 8 4 5 5 6 7 6 6 6 7 7 7 7 7 5 5 4 6 3 2 3 3 3 3 3 2 6 8 7 7 7 7 6
5 5 5 5 5 5 5 5 4 4 5 6 6 6 7 6 5 7 6 6 4 4 4 6 6 6 6 4 4 7 6 6 6 4 2 2 2 3 2 4 7 8 7 7 7 6 7
5 6 5 5 5 5 5 5 5 4 4 4 5 5 5 6 7 7 6 5 6 4 3 4 5 5 6 2 4 4 4 5 5 4 2 2 2 3 3 3 4 5 7 7 8 7 7
4 5 5 5 5 5 5 5 5 4 4 4 4 4 4 4 6 6 6 6 6 6 4 5 4 3 2 4 3 3 2 3 4 3 2 2 1 2 2 3 3 7 6 8 7 8 8
4 4 4 4 4 4 5 5 5 5 4 4 4 4 3 3 4 4 4 5 5 6 6 5 5 4 5 1 1 1 3 0 1 4 1 3 3 3 3 3 6 7 8 9 8 7 7
Height
1539 1537 1535 1532 1530 1527 1524 1522 1520 1518 1516 1512 1510 1507 1504 1501 1498 1494 1490 1486 1483 1480 1478 1476 1476 1476 1475 1476 1478 1478 1478 1479 1480 1482 1484 1488 1491 1492 1495 1495 1497 1497 1499 1500 1501 1501 1502
1540 1538 1536 1533 1530 1528 1524 1521 1519 1517 1516 1513 1510 1508 1505 1502 1500 1496 1493 1489 1486 1483 1481 1479 1477 1477 1477 1479 1480 1479 1480 1480 1481 1485 1488 1491 1492 1494 1494 1496 1497 1498 1499 1502 1502 1503 1504
1542 1540 1538 1535 1532 1528 1524 1521 1518 1516 1515 1513 1510 1508 1506 1503 1501 1498 1496 1492 1489 1486 1484 1481 1479 1478 1479 1483 1480 1480 1481 1482 1483 1484 1487 1491 1492 1493 1493 1496 1498 1499 1502 1503 1505 1504 1506
1543 1541 1539 1536 1532 1528 1524 1520 1517 1515 1513 1512 1510 1508 1506 1504 1502 1500 1497 1494 1491 1487 1485 1483 1481 1480 1484 1483 1483 1483 1483 1485 1487 1488 1491 1493 1494 1493 1494 1497 1499 1502 1507 1514 1510 1507 1507
1544 1542 1540 1536 1533 1529 1525 1520 1515 1513 1512 1511 1510 1508 1506 1504 1502 1500 1498 1495 1492 1489 1488 1487 1485 1484 1490 1486 1486 1487 1487 1487 1489 1492 1494 1494 1494 1493 1496 1501 1508 1512 1525 1517 1513 1511 1508
1545 1543 1541 1537 1534 1530 1525 1519 1515 1512 1512 1511 1510 1508 1507 1505 1504 1502 1500 1497 1495 1491 1490 1489 1488 1491 1494 1492 1489 1490 1490 1490 1490 1492 1496 1496 1494 1497 1503 1507 1519 1512 1523 1520 1517 1516 1512
1547 1544 1541 1538 1535 1531 1526 1520 1516 1513 1511 1511 1510 1509 1507 1505 1505 1503 1500 1498 1499 1496 1492 1494 1495 1492 1493 1494 1492 1492 1494 1491 1493 1497 1499 1497 1502 1512 1506 1506 1505 1509 1513 1519 1519 1518 1516
1547 1545 1542 1539 1536 1533 1528 1522 1518 1515 1513 1511 1509 1508 1508 1507 1505 1504 1502 1500 1501 1503 1498 1496 1496 1495 1495 1496 1498 1497 1496 1498 1497 1499 1497 1501 1508 1507 1506 1507 1508 1511 1516 1523 1521 1520 1519
1548 1546 1543 1541 1538 1534 1530 1525 1520 1517 1514 1512 1509 1507 1506 1507 1506 1505 1503 1503 1502 1501 1500 1497 1498 1496 1498 1499 1497 1496 1500 1500 1498 1500 1499 1505 1508 1506 1507 1512 1511 1519 1520 1523 1521 1522 1526
1549 1546 1544 1541 1539 1535 1532 1528 1523 1518 1515 1512 1508 1505 1504 1505 1508 1504 1504 1504 1502 1501 1513 1510 1500 1500 1499 1497 1499 1499 1499 1499 1498 1500 1502 1510 1509 1507 1509 1515 1515 1518 1521 1521 1524 1527 1542
1549 1547 1545 1542 1539 1536 1533 1529 1525 1520 1516 1513 1509 1505 1504 1504 1505 1505 1506 1503 1502 1503 1542 1511 1506 1503 1500 1499 1502 1500 1498 1498 1503 1504 1503 1516 1515 1514 1516 1517 1516 1521 1521 1523 1528 1535 1542
1550 1548 1546 1543 1540 1537 1534 1530 1525 1522 1517 1514 1510 1507 1505 1505 1505 1505 1504 1504 1504 1521 1544 1519 1511 1508 1503 1501 1502 1501 1500 1499 1502 1504 1508 1515 1515 1516 1518 1518 1516 1519 1522 1528 1536 1541 1564
1550 1548 1546 1543 1540 1538 1534 1531 1526 1522 1518 1515 1512 1509 1507 1506 1506 1505 1505 1505 1521 1538 1526 1522 1518 1513 1511 1511 1508 1507 1511 1512 1516 1524 1526 1520 1520 1519 1519 1519 1519 1522 1532 1568 1554 1567 1557
1550 1548 1546 1543 1541 1538 1535 1531 1527 1523 1518 1515 1513 1511 1509 1508 1507 1506 1506 1509 1533 1534 1527 1519 1518 1515 1516 1515 1514 1514 1515 1524 1517 1519 1533 1538 1542 1526 1523 1524 1523 1528 1531 1561 1553 1563 1561
1548 1547 1546 1543 1541 1539 1535 1532 1528 1523 1519 1515 1513 1512 1510 1508 1507 1507 1508 1530 1534 1529 1524 1522 1519 1520 1520 1515 1515 1518 1524 1525 1523 1520 1522 1531 1531 1527 1526 1525 1527 1528 1540 1537 1560 1575 1572
1546 1546 1545 1543 1541 1539 1536 1532 1529 1524 1519 1515 1513 1512 1512 1509 1508 1508 1511 1526 1524 1522 1521 1522 1522 1523 1523 1522 1518 1519 1525 1526 1525 1522 1520 1524 1530 1531 1528 1526 1528 1527 1533 1544 1554 1546 1550
1546 1544 1543 1542 1540 1538 1536 1533 1529 1525 1520 1515 1513 1512 1512 1510 1509 1509 1525 1527 1523 1521 1520 1520 1523 1523 1523 1523 1523 1526 1526 1525 1524 1522 1521 1523 1526 1534 1529 1531 1532 1534 1534 1540 1544 1552 1554
1544 1543 1542 1541 1539 1537 1535 1533 1529 1524 1520 1516 1513 1514 1513 1510 1512 1519 1526 1524 1523 1522 1521 1520 1520 1520 1522 1522 1523 1524 1527 1528 1525 1524 1524 1525 1531 1545 1530 1531 1531 1531 1532 1538 1548 1547 1560
1543 1541 1541 1540 1539 1537 1535 1533 1529 1525 1521 1518 1516 1514 1514 1511 1524 1527 1525 1525 1525 1525 1525 1524 1523 1521 1521 1521 1524 1524 1524 1523 1523 1524 1527 1526 1532 1550 1535 1535 1533 1532 1532 1535 1541 1545 1547
1539 1539 1538 1537 1536 1535 1534 1532 1529 1526 1523 1520 1518 1519 1516 1515 1519 1523 1526 1527 1527 1527 1526 1525 1525 1524 1523 1522 1522 1524 1524 1525 1524 1523 1522 1524 1536 1533 1541 1531 1533 1532 1532 1534 1534 1554 1540
1538 1537 1536 1535 1534 1533 1531 1530 1528 1526 1523 1523 1521 1523 1523 1527 1522 1522 1523 1525 1526 1526 1526 1526 1526 1528 1529 1528 1527 1525 1526 1526 1526 1525 1526 1527 1532 1539 1534 1534 1534 1531 1529 1533 1535 1530 1530
1536 1535 1533 1533 1533 1532 1531 1530 1527 1525 1524 1523 1523 1524 1524 1523 1524 1524 1524 1524 1524 1525 1526 1526 1527 1526 1526 1527 1530 1531 1530 1529 1528 1527 1526 1528 1532 1536 1530 1529 1529 1529 1527 1530 1531 1528 1529
1534 1533 1532 1531 1530 1530 1530 1528 1527 1525 1524 1522 1524 1524 1524 1526 1524 1525 1525 1524 1523 1524 1525 1525 1526 1527 1527 1527 1527 1526 1525 1525 1528 1531 1532 1532 1535 1537 1531 1535 1533 1527 1517 1519 1519 1519 1516
1531 1531 1530 1529 1529 1528 1528 1527 1526 1525 1524 1524 1523 1523 1523 1525 1526 1524 1523 1523 1523 1523 1525 1525 1525 1524 1526 1525 1526 1527 1526 1526 1527 1527 1527 1534 1536 1542 1542 1533 1535 1513 1510 1511 1513 1511 1512
1527 1528 1528 1528 1527 1527 1526 1526 1526 1525 1524 1523 1523 1523 1522 1524 1524 1522 1522 1523 1523 1524 1524 1524 1524 1525 1525 1524 1528 1528 1530 1526 1530 1531 1530 1529 1534 1541 1546 1549 1522 1508 1508 1507 1508 1507 1507
1523 1524 1525 1525 1525 1525 1525 1525 1525 1525 1524 1523 1522 1522 1522 1521 1519 1520 1521 1522 1523 1523 1523 1522 1523 1523 1524 1525 1528 1527 1528 1524 1525 1531 1532 1533 1533 1538 1545 1544 1523 1507 1507 1507 1506 1512 1505
1518 1520 1520 1522 1523 1523 1523 1523 1523 1524 1524 1523 1522 1521 1522 1520 1516 1516 1518 1520 1520 1522 1523 1522 1522 1523 1523 1527 1529 1531 1529 1525 1525 1528 1534 1535 1537 1539 1541 1539 1524 1508 1507 1507 1510 1512 1502
1512 1513 1515 1516 1518 1519 1521 1520 1521 1521 1522 1522 1522 1520 1521 1520 1515 1515 1515 1515 1515 1517 1520 1521 1523 1522 1525 1527 1529 1528 1530 1526 1525 1525 1529 1529 1537 1538 1540 1541 1535 1503 1507 1509 1507 1502 1502
1506 1507 1508 1510 1511 1514 1515 1516 1517 1518 1519 1519 1519 1519 1518 1518 1515 1513 1513 1513 1514 1515 1515 1516 1518 1517 1518 1524 1527 1527 1526 1530 1528 1524 1523 1526 1518 1522 1521 1514 1501 1502 1501 1502 1502 1501 1501
Wind_Speed
21 20 18 16 14 12 11 11 11 12 14 15 14 13 13 16 19 22 21 16 13 11 13 12 8 5 5 3 5 2 2 6 8 12 15 9 20 6 6 5 3 3 3 5 4 7 11
19 19 20 20 20 16 13 13 12 12 12 13 11 12 11 13 17 19 17 13 13 13 15 16 10 1 1 5 8 2 1 7 15 16 8 14 6 0 4 3 1 5 9 5 9 7 6
17 18 19 19 20 21 18 14 13 13 11 11 11 7 10 10 13 13 11 11 9 12 17 15 12 8 15 9 7 4 4 7 17 14 13 10 1 1 6 5 9 5 6 5 12 8 4
15 16 18 19 21 22 23 19 13 12 10 8 10 12 7 8 9 9 8 8 3 4 14 21 12 6 6 12 5 8 8 7 9 16 17 4 2 2 3 12 5 5 6 5 5 7 4
14 15 17 19 21 24 26 24 15 9 9 7 9 12 9 7 9 10 7 14 10 7 6 11 17 9 7 13 16 17 9 7 9 14 20 3 2 4 5 4 5 7 4 4 2 6 1
14 16 18 20 22 25 28 27 17 9 6 8 7 9 7 5 4 4 8 8 15 17 3 4 10 7 4 5 10 7 6 12 8 15 9 4 2 4 4 4 5 5 7 4 3 5 5
14 16 17 19 22 25 29 28 19 12 7 6 8 5 5 3 3 9 14 8 5 7 20 12 11 8 6 9 7 8 19 17 16 16 3 1 6 3 3 1 1 6 6 6 2 4 2
13 15 17 18 21 24 28 30 19 12 9 8 6 3 2 5 4 4 9 15 10 5 3 14 14 7 12 11 13 14 7 4 2 2 2 6 4 3 2 3 5 6 7 3 2 4 2
14 15 16 18 20 23 27 31 25 15 10 12 11 5 10 8 6 7 10 12 9 8 3 11 11 13 7 9 6 9 3 2 1 5 5 7 2 2 4 5 7 5 6 3 4 2 4
13 15 16 17 19 22 24 28 30 21 14 14 15 8 5 12 9 9 8 8 7 5 5 9 11 9 10 3 3 6 3 2 4 4 5 7 7 4 6 5 2 4 2 3 6 4 3
13 14 16 17 18 20 22 25 28 28 16 15 16 11 3 9 6 5 6 7 6 2 5 12 8 10 11 7 4 9 10 8 4 4 5 2 5 7 8 2 1 3 3 4 3 5 4
12 13 15 16 18 19 21 23 25 27 20 12 15 13 6 2 8 9 6 4 4 6 2 8 6 8 7 11 6 8 7 9 2 6 8 4 1 4 2 2 3 6 4 6 4 3 3
11 13 14 15 17 19 20 22 25 27 22 9 16 13 9 5 3 2 2 2 5 6 3 7 4 6 3 6 7 8 5 8 4 5 5 5 4 4 4 4 3 5 6 3 4 4 5
12 13 14 15 16 18 20 22 23 26 25 11 8 15 11 7 4 1 1 5 8 4 4 3 3 4 5 6 5 7 3 5 5 5 3 4 5 6 7 3 3 4 4 5 5 2 4
11 13 14 15 16 18 20 22 23 24 25 16 7 8 17 8 4 1 1 6 6 5 2 4 3 5 6 4 3 5 5 2 2 4 4 3 3 3 4 3 2 3 3 3 7 2 3
11 12 14 15 17 18 20 21 23 24 24 19 8 4 16 9 6 1 5 3 3 4 1 0 3 2 4 7 4 4 4 3 5 5 1 3 4 3 3 2 5 1 6 4 3 2 3
12 12 13 14 16 17 19 21 22 24 24 20 7 2 14 9 5 4 4 3 3 3 2 3 2 1 2 2 4 4 2 1 2 5 5 1 2 3 1 2 2 2 2 4 4 3 4
11 13 14 15 16 16 18 19 21 23 23 19 6 3 11 10 4 4 3 2 2 1 1 1 2 3 2 1 2 2 3 2 9 4 2 1 3 2 1 0 1 2 2 3 4 3 2
12 12 14 15 17 18 18 19 20 22 23 21 8 3 8 9 3 2 1 3 3 3 3 4 3 1 1 4 4 1 2 1 6 5 3 2 2 2 5 3 3 2 3 3 4 3 5
12 11 12 13 14 16 17 18 19 19 20 18 6 3 6 8 7 5 2 3 4 3 3 3 3 3 4 3 3 5 4 2 1 3 4 3 3 2 5 3 2 3 3 4 4 3 4
9 12 13 13 14 15 16 16 16 16 16 13 7 2 2 2 4 4 3 3 1 2 1 3 4 3 4 4 6 4 0 2 1 2 2 2 4 5 4 4 2 3 5 5 8 5 6
9 10 13 14 15 14 15 15 16 15 13 6 4 2 2 2 1 1 2 2 3 1 2 1 0 1 2 1 2 4 4 4 3 3 2 2 2 0 3 4 8 6 10 10 7 5 9
9 10 11 14 12 12 13 15 15 14 11 5 5 3 2 1 1 2 2 2 2 2 2 2 2 1 2 2 1 1 4 4 1 2 3 3 3 2 3 4 7 8 6 5 2 4 6
13 11 11 10 11 10 10 12 14 13 9 6 5 3 1 2 1 3 2 2 3 3 1 1 2 3 2 0 2 1 1 1 1 3 4 3 2 2 3 4 1 3 2 3 6 4 6
16 14 12 11 10 10 10 10 11 11 9 6 3 2 0 1 3 3 3 2 2 1 2 2 3 2 2 1 3 3 3 1 2 4 2 2 4 2 1 2 7 1 1 2 3 2 3
19 16 17 15 13 12 11 10 9 9 9 9 4 3 2 1 4 3 2 4 3 2 2 2 3 4 2 3 2 2 4 3 2 1 4 3 4 3 2 1 5 3 1 1 2 4 1
20 20 19 18 16 17 14 13 10 9 10 8 6 4 3 4 3 6 4 3 4 2 2 2 3 4 5 2 2 4 4 3 3 5 4 3 1 4 3 3 7 5 4 1 2 4 9
20 22 22 23 21 19 18 17 15 12 11 10 8 7 5 5 8 7 7 7 6 6 4 4 2 2 2 2 3 3 3 3 1 3 5 6 6 4 3 3 7 6 1 2 4 5 9
20 22 23 22 24 23 22 21 20 17 15 13 13 8 7 8 7 6 8 12 13 9 4 9 2 3 6 3 1 2 2 0 2 3 1 3 5 4 8 6 6 7 3 7 10 11 5
Wind_Direction
39 32 25 16 12 5 349 342 354 6 8 10 23 9 11 16 25 23 21 19 19 45 52 43 63 81 136 31 38 212 221 179 174 155 143 162 167 133 151 178 139 98 141 62 91 131 115
37 32 28 24 18 7 349 340 331 339 355 0 16 27 25 22 18 18 24 37 43 63 54 34 25 315 261 60 356 285 261 190 152 174 137 195 162 232 152 118 106 129 102 95 68 80 76
33 28 23 21 18 13 6 344 334 329 327 346 351 357 4 11 17 22 36 63 76 83 31 16 18 77 61 8 356 18 167 142 158 139 162 172 3 41 146 104 119 118 79 55 18 2 73
28 24 17 18 18 14 8 359 343 326 330 336 347 353 353 355 6 12 6 358 33 25 11 28 26 58 55 12 57 94 134 125 159 178 153 105 276 91 87 124 51 62 49 85 329 352 17
24 19 14 13 16 13 8 2 354 335 330 323 343 348 3 352 5 18 40 50 23 286 344 26 22 57 19 64 85 72 74 136 150 170 151 335 23 79 91 79 50 22 108 89 73 19 24
17 15 11 10 13 13 10 6 2 358 333 342 317 340 2 2 10 6 349 14 48 54 21 15 21 63 75 98 27 31 47 116 127 152 149 302 2 79 41 61 171 142 102 50 115 347 37
14 12 9 10 10 12 11 10 9 14 360 352 347 306 20 85 37 51 49 52 62 57 55 69 87 87 44 54 85 70 84 89 109 140 175 207 72 97 71 32 117 128 110 115 342 349 70
13 12 9 10 10 10 11 10 11 16 18 0 345 310 219 132 115 43 24 39 46 3 10 45 63 62 60 88 105 91 147 59 88 249 141 46 70 329 35 43 91 67 110 68 20 18 80
8 9 8 10 10 8 10 10 7 5 5 9 352 312 236 238 251 302 347 8 7 10 29 18 36 27 53 118 115 186 183 85 339 97 95 100 305 340 115 46 80 45 103 164 152 101 72
4 6 7 10 8 7 8 8 9 0 353 355 3 352 246 239 274 304 326 357 349 351 69 324 351 14 352 152 85 47 237 245 35 69 72 71 343 52 83 76 58 76 320 100 106 78 173
356 1 3 7 5 4 5 7 8 5 355 353 2 6 350 224 247 331 328 339 354 348 50 313 322 341 22 75 321 15 32 71 80 6 99 15 16 41 61 336 22 119 82 95 91 86 74
349 354 357 2 2 1 1 4 5 6 359 2 4 14 24 346 250 281 309 335 343 44 301 334 328 351 6 22 24 15 41 69 79 63 38 85 45 63 49 25 66 152 75 52 63 84 39
343 347 350 355 358 358 359 2 2 4 5 356 16 18 27 25 7 310 311 324 39 87 279 316 328 359 354 356 11 25 38 24 44 64 8 6 5 358 37 73 42 67 56 11 11 8 215
334 337 341 348 352 354 355 359 2 1 5 359 346 24 19 22 27 53 14 50 65 243 261 305 324 335 50 3 13 11 49 34 10 46 83 108 353 5 340 51 149 62 123 145 183 184 261
321 327 335 340 345 348 351 354 359 0 1 357 335 317 11 4 356 307 349 50 181 208 310 341 337 44 344 7 64 66 34 46 340 6 95 116 29 330 36 4 47 177 71 153 105 74 46
309 318 328 335 339 343 346 351 355 358 359 358 349 332 5 360 360 13 76 154 192 207 201 334 72 24 26 335 34 58 22 347 340 28 306 196 97 16 315 10 37 90 144 73 1 134 279
305 312 320 328 334 337 342 346 352 356 358 358 351 354 1 0 355 37 98 204 212 239 207 132 141 73 63 14 28 13 348 36 16 329 43 33 98 289 11 37 172 29 24 47 112 112 162
298 305 312 320 325 330 336 342 348 352 357 0 354 27 358 359 37 43 55 12 347 297 300 281 132 144 137 82 83 88 8 313 351 332 58 356 119 113 134 157 237 194 166 137 113 224 70
303 305 309 317 321 326 332 339 346 351 354 354 340 353 6 15 75 27 353 14 30 347 338 341 333 324 253 148 122 156 165 250 15 44 61 357 29 42 351 7 2 237 201 127 104 90 196
296 294 296 303 309 317 326 334 342 347 352 354 347 14 36 53 75 113 65 24 351 7 334 344 323 345 356 3 341 158 153 212 45 113 94 100 56 136 187 213 153 247 215 183 137 131 193
301 300 299 291 302 313 317 325 335 343 353 356 8 43 23 328 16 107 128 151 104 359 39 15 348 8 358 345 343 334 329 149 146 153 61 100 147 154 234 248 267 258 249 190 205 210 198
306 324 327 311 300 303 311 320 331 343 350 6 19 13 40 96 346 29 357 185 162 198 143 19 176 3 76 138 158 315 1 351 334 11 86 6 184 131 276 177 176 229 221 216 229 254 270
284 301 319 335 308 301 315 328 332 343 355 29 26 11 336 338 81 90 230 187 205 167 175 170 174 78 351 254 205 164 158 157 205 26 359 13 105 61 279 351 330 298 260 182 187 203 190
269 278 296 317 329 314 311 323 333 341 351 8 17 359 345 285 198 214 195 205 202 212 222 256 163 152 176 49 291 284 2 357 103 83 123 132 91 31 292 343 341 244 284 199 205 249 231
258 266 277 291 304 321 311 313 330 339 346 344 339 352 312 271 242 280 215 197 160 215 231 242 233 219 192 115 47 359 340 18 53 26 34 101 127 76 118 246 295 34 18 123 112 264 206
263 268 270 278 286 293 302 306 315 324 336 346 324 305 251 168 234 220 180 201 192 212 330 220 212 188 184 83 93 192 245 242 246 107 34 67 61 121 139 175 244 239 303 25 139 303 323
259 259 265 266 276 282 282 286 288 294 310 324 334 305 268 263 245 200 189 192 179 167 175 223 186 187 187 120 170 190 233 177 221 189 166 127 121 192 190 243 286 250 261 145 74 264 191
262 261 263 260 265 265 270 272 274 274 280 291 302 309 289 269 267 247 228 210 194 192 164 159 96 224 75 162 178 218 198 229 275 173 180 173 151 191 132 203 275 196 136 201 232 278 232
270 268 265 266 262 256 258 262 261 262 259 267 275 293 277 261 269 270 254 244 240 231 198 188 226 177 194 98 211 116 226 98 174 260 8 238 194 184 189 211 233 196 231 283 301 292 261